SL-16 DEB, 24303

Orbit data source: Space-Track

SL-16 DEB, 24303 is space debris in LEO originally from a launch on Wed, 04 Sep 1996 UTC launched from the Tyuratam Missile And Space Complex (TTMTR). Debris objects in space refer to the collection of defunct objects orbiting the Earth. Examples of debris include non-operational satellites, rocket bodies, and fragments generated from explosions, collisions, or faulty payload assembly.

Loading next visibility...
Identifier
24303, 1996-051G
Orbit
LEO
Last TLE update
10 hours ago
Origin
Manufacturer
Unknown
Mission
Spacecraft
Bus & Motor
Unknown
Mass
Unknown
Launch date (UTC)
1996-09-04 (29 years ago)
Launch vehicle
Unknown
Launch site
Tyuratam Missile And Space Complex (TTMTR)
Object type
Payload
Rocket body
Debris
Shape & HBR
Unknown
Radar Cross Section
0.470 m², Medium (>0.1 m² and < 1m²)

Expand to show TLE details & history

TLE from 10 hours ago
0 SL-16 DEB
1 24303U 96051G   25186.91831919 -.00000087  00000-0 -23674-4 0  9999
2 24303  71.1073  26.8010 0069771 162.8911 305.8753 14.08364395481915
Epoch: 2025-07-05T22:02Z
TLE epoch observation values (Epoch: 2025-07-05T22:02:22.778Z)
Latitude
64.16149°
Longitude
-92.61134°
Altitude
846.106 km
Speed
7.451 km/s
True Right ascension
10h 48m 31s
True Declination
64° 01' 41"
Sunlit
Object was in daylight at epoch
Visualization orbit readout
Latitude
25.90401°
Longitude
140.72636°
Altitude
903.049 km
Speed
7.385 km/s
Apparent Right ascension
04h 37m 36s
Apparent Declination
-5° 57' 13"
Sunlit
Object is in daylight
Visualization observer readout
Local Sidereal Time
19:50:50
Azimuth
65.089° ENE
Elevation
-35.025°
Doppler factor
1
Orbital elements
Apogee altitude
913.416 km
Perigee altitude
812.374 km
Semi-major axis
7,241.032 km
Eccentricity
0.00698
Inclination
71.1073°
RAAN
26.801°
Arg. of periapsis
162.8911°
True anomaly
Unknown
Mean anomaly
305.8753°
Eccentric anomaly
Unknown
Mean motion
3.52243 °/min
Orbital period
102.2 mins
BSTAR
-0.000023674
Loading maneuver chart data...
Loading SW <> Apogee altitude chart data...
Loading historical data...
Loading historical data...
Loading historical data...
Loading historical data...
Loading historical data...
Loading historical data...
Loading historical data...

SL-16 DEB Visibility forecast

Observer location: undefined°, undefined°

Span
Click to sort rows by Start time (UTC) header in descending order
Start Az.
Max El. time (UTC)
Max El. Az.
Max El.
End time (UTC)
End Az.
10 mins2025-07-06 14:42:06.137Z199.397° SSW2025-07-06 14:46:06.137Z185.257° SSW44.347°2025-07-06 14:52:06.137Z23.864° NE
5 mins2025-07-06 16:30:06.137Z290.517° WNW2025-07-06 16:32:06.137Z313.881° NW15.196°2025-07-06 16:35:06.137Z345.873° N
8 mins2025-07-06 23:40:06.137Z2.383° NNE2025-07-06 23:43:06.137Z47.802° ENE30.392°2025-07-06 23:48:06.137Z123.845° SE
7 mins2025-07-07 01:25:06.137Z301.09° NW2025-07-07 01:28:06.137Z253.761° W25.595°2025-07-07 01:32:06.137Z201.867° SSW
|